Regional Weather Roundup
Issued by NWS

Home | Current Version | Previous Version | Text Only | Print | Product List | Glossary Off
Versions: 1 2 3 4 5 6 7 8 9 10 11 12 13 14 15 16 17 18 19 20 21 22 23 24 25 26 27 28 29 30 31 32 33 34 35 36 37 38 39 40 41 42 43 44 45 46 47 48 49 50

000
ASUS44 KMEG 210400
RWRTN
TENNESSEE HOURLY STATE WEATHER ROUNDUP
NATIONAL WEATHER SERVICE MEMPHIS TN
1100 PM CDT MON APR 20 2015

TNZ002-004-019-021-049-052-054-088>092-210500-
WEST TENNESSEE

CITY           SKY/WX    TMP DP  RH WIND       PRES   REMARKS
MEMPHIS INTL   PTCLDY    56  39  53 NW6       29.95R
NWS MEMPHIS      N/A     51 N/A N/A MISG        N/A
JACKSON        CLEAR     50  40  68 SW6       29.93R
DYERSBURG      CLEAR     55  30  38 NW7       29.93R
UNION CITY     CLEAR     52  32  46 W7        29.91R
PARIS            N/A     50  37  62 W6        29.91R
LEXINGTON      CLEAR     46  43  87 CALM      29.91R
SAVANNAH       CLEAR     45  32  61 CALM      29.93R
$$

TNZ008-025-027-028-033-062-065-066-210500-
NORTH MIDDLE TENNESSEE

CITY           SKY/WX    TMP DP  RH WIND       PRES   REMARKS
NASHVILLE      CLEAR     51  42  71 SW6       29.89R
CLARKSVILLE    MOCLDY    53  42  66 NW5       29.89R
COOKEVILLE     CLEAR     46  45  93 CALM      29.88S
CROSSVILLE     CLEAR     48  42  80 W3        29.89R
$$

TNZ061-075-076-078-094-096-097-210500-
SOUTH MIDDLE TENNESSEE

CITY           SKY/WX    TMP DP  RH WIND       PRES   REMARKS
FAYETTEVILLE   CLEAR     48  43  81 CALM      29.92S
TULLAHOMA      CLEAR     46  39  76 W3        29.92R
WINCHESTER     CLEAR     52  43  71 CALM      29.92R
MCMINNVILLE    CLEAR     48  45  87 CALM      29.90R
COLUMBIA       CLEAR     48  32  53 SW6       29.90R
SHELBYVILLE    CLEAR     52  45  76 SW3       29.92R
$$

TNZ017-018-042-046-047-210500-
NORTHEAST TENNESSEE

CITY           SKY/WX    TMP DP  RH WIND       PRES   REMARKS
TRI CITIES     MOCLDY    52  45  77 W10       29.83R
ELIZABETHTON   CLOUDY    52  46  82 VRB6      29.85R
$$

TNZ012-013-036-069-073-074-210500-
CENTRAL EAST TENNESSEE

CITY           SKY/WX    TMP DP  RH WIND       PRES   REMARKS
KNOXVILLE      MOCLDY    54  45  71 SW8       29.87R
OAK RIDGE      CLEAR     55  44  66 SW3       29.89R
GATLINBURG     CLOUDY    55  43  62 W9        29.88R
$$

TNZ083-085-099-210500-
SOUTHEAST TENNESSEE

CITY           SKY/WX    TMP DP  RH WIND       PRES   REMARKS
CHATTANOOGA    PTCLDY    58  44  60 W3        29.91R
$$

SKY/WX REPORTED AS FAIR MEANS FEW OR NO CLOUDS BELOW
12 THOUSAND FEET.




USA.gov is the U.S. government's official web portal to all federal, state and local government web resources and services.